[[{"header":{"parameterUnit":"m.s-1","parameterCategory":1,"la1":30.2991,"la2":30.254,"lo1":-89.0895,"lo2":-89.0444,"dy":0.0017,"dx":0.0017,"nx":28,"ny":28,"refTime":"2024-04-01T21:00:00:Z","depth":0,"parameterNumber":2,"parameterNumberName":"U-component_of_WINDS"},"data":[0,0,0,0,0,0,0,0,0,0,0,0,0,0,0,0,0,0,0,0,0,0,0,0,0,0,0,0,0,0,0,0,0,0,0,0,0,0,0,0,0,0,0,0,0,0,0,0,0,0,0,0,0,0,0,0,0,0,-2.4255,-2.4255,0,-2.4264,-2.4264,-2.4264,-2.4227,-2.4226,-2.4225,-2.4224,-2.4232,-2.4233,-2.4234,0,0,0,0,0,0,0,0,0,0,0,0,0,-2.4205,-2.4207,-2.4255,-2.4255,-2.4255,-2.4264,-2.4264,-2.4264,-2.4227,-2.4226,-2.4225,-2.4223,-2.4231,-2.4233,-2.4234,0,0,0,0,0,0,0,0,0,0,0,0,0,-2.4222,-2.4207,-2.4255,-2.4238,-2.4236,-2.4264,-2.4264,-2.4264,-2.4228,-2.4226,-2.4224,-2.4223,-2.4231,-2.4233,-2.4234,-2.4278,0,0,-2.424,-2.4241,0,0,0,0,0,0,0,0,-2.4221,-2.4224,-2.424,-2.4239,-2.4238,-2.4243,-2.4249,-2.4268,-2.4228,-2.4231,-2.4224,-2.4222,-2.4237,-2.4238,-2.4243,-2.4278,-2.4278,-2.424,-2.4241,-2.4242,-2.4242,0,0,0,0,0,0,0,-2.422,-2.4223,-2.4258,-2.4241,-2.4239,-2.423,-2.423,-2.4253,-2.4243,-2.4231,-2.4228,-2.423,-2.4235,-2.4241,-2.4243,-2.4279,-2.424,-2.4242,-2.4243,-2.4243,-2.4349,-2.4351,0,0,0,0,0,0,-2.4221,-2.4222,-2.4258,-2.4258,-2.4225,-2.4232,-2.4232,-2.4243,-2.4242,-2.4241,-2.4231,-2.4228,-2.4239,-2.4241,-2.4243,-2.4293,-2.4242,-2.4244,-2.4245,-2.4348,-2.435,-2.4352,0,0,0,0,0,0,-2.422,-2.4225,-2.4258,-2.424,-2.4243,-2.4234,-2.4246,-2.4244,-2.4249,-2.4243,-2.424,-2.4239,-2.4238,-2.424,-2.4269,-2.4293,-2.4244,-2.4246,-2.4346,-2.4348,-2.4351,-2.4394,0,0,0,0,0,0,-2.4219,-2.4224,-2.4241,-2.424,-2.4244,-2.4284,-2.4248,-2.4245,-2.4253,-2.4249,-2.4249,-2.4248,-2.4237,-2.4267,-2.4271,-2.4294,-2.4248,-2.4343,-2.4347,-2.435,-2.439,-2.4398,-2.4404,0,0,0,0,0,-2.4217,-2.4253,-2.4242,-2.4247,-2.4265,-2.4286,-2.4288,-2.4275,-2.4255,-2.4271,-2.4267,-2.4248,-2.429,-2.427,-2.4275,-2.4299,-2.4342,-2.4346,-2.435,-2.4387,-2.4396,-2.4404,0,0,0,0,0,0,-2.4256,-2.4252,-2.424,-2.4277,-2.4282,-2.4279,-2.4299,-2.4285,-2.4295,-2.4291,-2.4274,-2.4274,-2.4306,-2.4306,-2.4283,-2.4341,-2.4312,-2.4317,-2.434,-2.4348,-2.4355,-2.4353,-2.4249,0,0,0,0,0,-2.4269,-2.4286,-2.4282,-2.4314,-2.4318,-2.4308,-2.4317,-2.4306,-2.4311,-2.4313,-2.431,-2.4315,-2.4329,-2.4339,-2.4352,-2.4391,-2.439,-2.441,-2.4417,-2.4422,-2.4426,-2.4446,-2.4455,-2.4364,-2.4364,-2.4364,0,0,-2.4295,-2.4295,-2.4307,-2.4322,-2.4325,-2.4343,-2.431,-2.4331,-2.4344,-2.4315,-2.4342,-2.4341,-2.4345,-2.438,-2.4394,-2.438,-2.4451,-2.4427,-2.4432,-2.4433,-2.4451,-2.446,-2.4467,-2.4367,-2.4367,-2.4366,0,0,-2.4352,-2.4354,-2.4381,-2.4385,-2.439,-2.4383,-2.439,-2.439,-2.4388,-2.4415,-2.4394,-2.441,-2.4435,-2.4438,-2.4443,-2.4503,-2.4485,-2.4508,-2.4543,-2.4562,-2.4569,-2.4576,-2.4596,-2.4603,-2.4512,-2.4512,-2.4512,0,-2.4383,-2.441,-2.4397,-2.4419,-2.4426,-2.4402,-2.4429,-2.4433,-2.4442,-2.4447,-2.4431,-2.4462,-2.4463,-2.4497,-2.4512,-2.4517,-2.4524,-2.4507,-2.457,-2.4576,-2.4581,-2.46,-2.4608,-2.4515,-2.4514,-2.4514,-2.4514,0,-2.4449,-2.4468,-2.4489,-2.4498,-2.4508,-2.4532,-2.4522,-2.4533,-2.4523,-2.4518,-2.4546,-2.4547,-2.4559,-2.4567,-2.4556,-2.46,-2.459,-2.4573,-2.4543,-2.4593,-2.461,-2.4617,-2.4518,-2.4517,-2.4517,-2.4516,0,0,-2.4528,-2.4531,-2.4539,-2.4542,-2.4547,-2.4561,-2.4584,-2.4597,-2.4606,-2.4613,-2.4632,-2.4654,-2.4638,-2.4644,-2.4633,-2.4651,-2.4697,-2.4631,-2.4631,-2.4642,-2.4744,-2.4756,-2.4765,-2.4686,-2.4688,-2.4689,-2.4743,0,-2.4583,-2.4623,-2.4612,-2.4652,-2.4669,-2.4647,-2.4668,-2.4672,-2.4669,-2.4682,-2.4679,-2.4694,-2.4672,-2.4675,-2.4692,-2.4688,-2.4717,-2.4684,-2.4702,-2.4703,-2.4701,-2.4774,-2.4787,-2.4839,-2.475,-2.4751,-2.4752,0,-2.4652,-2.4663,-2.4704,-2.4705,-2.4712,-2.4731,-2.4741,-2.4755,-2.4759,-2.4756,-2.4763,-2.4749,-2.4772,-2.4744,-2.4775,-2.4753,-2.476,-2.4759,-2.4761,-2.4761,-2.4729,-2.4775,-2.4855,-2.4862,-2.4763,-2.4762,-2.4761,0,-2.4705,-2.4729,-2.4757,-2.4761,-2.4764,-2.4777,-2.4779,-2.4782,-2.479,-2.4799,-2.4804,-2.4817,-2.4823,-2.4832,-2.4822,-2.4803,-2.4854,-2.4825,-2.4851,-2.4851,-2.4861,-2.486,-2.4942,-2.4868,-2.4868,-2.4868,-2.4868,0,-2.4766,-2.4793,-2.4781,-2.4798,-2.4826,-2.4814,-2.4842,-2.4841,-2.4844,-2.486,-2.4843,-2.4858,-2.4845,-2.4859,-2.4851,-2.4877,-2.4881,-2.4878,-2.4875,-2.4878,-2.4879,-2.4882,-2.4877,-2.487,-2.4869,-2.4869,-2.4869,0,-2.4829,-2.4823,-2.4851,-2.4852,-2.4852,-2.4873,-2.4873,-2.4889,-2.4885,-2.4905,-2.4909,-2.4903,-2.4919,-2.491,-2.4926,-2.4921,-2.4954,-2.4948,-2.4953,-2.495,-2.4976,-2.4973,-2.5061,-2.5071,-2.4992,-2.4993,-2.4994,0,-2.4868,-2.4888,-2.489,-2.49,-2.4903,-2.4919,-2.4928,-2.4916,-2.4926,-2.4933,-2.4948,-2.4962,-2.4973,-2.4999,-2.4995,-2.5008,-2.5,-2.503,-2.5002,-2.5004,-2.4999,-2.4997,-2.4999,-2.5035,-2.5036,-2.5037,-2.5038,0,-2.4938,-2.4934,-2.4947,-2.4959,-2.497,-2.4979,-2.4986,-2.4995,-2.4984,-2.4996,-2.5012,-2.502,-2.5037,-2.5051,-2.5062,-2.5063,-2.5048,-2.5047,-2.5053,-2.5056,-2.5058,-2.5056,-2.4967,-2.5045,-2.5044,-2.5043,-2.5043,-2.5043,-2.4989,-2.5005,-2.501,-2.5025,-2.5029,-2.5037,-2.5051,-2.5049,-2.5063,-2.5076,-2.5068,-2.5087,-2.5092,-2.5104,-2.5108,-2.5122,-2.511,-2.5119,-2.5121,-2.5123,-2.5126,-2.5057,-2.5124,-2.5124,-2.5124,-2.5123,-2.5123,0,-2.5056,-2.5058,-2.5073,-2.5084,-2.5096,-2.5082,-2.509,-2.51,-2.5117,-2.5123,-2.5134,-2.5152,-2.5166,-2.5164,-2.5177,-2.5189,-2.5182,-2.5192,-2.519,-2.5191,-2.5137,-2.513,-2.5197,-2.5197,-2.5197,-2.5197,-2.5197,-2.5197,-2.5093,-2.5119,-2.5116,-2.5144,-2.5146,-2.5165,-2.517,-2.5177,-2.5181,-2.5203,-2.5214,-2.5213,-2.5215,-2.5228,-2.524,-2.5239,-2.5244,-2.5256,-2.5253,-2.5202,-2.5195,-2.5188,-2.5181,-2.5258,-2.5258,-2.5305,-2.5306,-2.5306]},{"header":{"parameterUnit":"m.s-1","parameterCategory":1,"la1":30.2991,"la2":30.254,"lo1":-89.0895,"lo2":-89.0444,"dy":0.0017,"dx":0.0017,"nx":28,"ny":28,"refTime":"2024-04-01T21:00:00:Z","depth":0,"parameterNumber":3,"parameterNumberName":"V-component_of_WINDS"},"data":[0,0,0,0,0,0,0,0,0,0,0,0,0,0,0,0,0,0,0,0,0,0,0,0,0,0,0,0,0,0,0,0,0,0,0,0,0,0,0,0,0,0,0,0,0,0,0,0,0,0,0,0,0,0,0,0,0,0,3.6065,3.6065,0,3.6106,3.6107,3.6107,3.6114,3.6113,3.6113,3.6113,3.6151,3.6152,3.6154,0,0,0,0,0,0,0,0,0,0,0,0,0,3.5989,3.599,3.6065,3.6065,3.6066,3.6106,3.6107,3.6107,3.6114,3.6113,3.6113,3.6113,3.6151,3.6152,3.6154,0,0,0,0,0,0,0,0,0,0,0,0,0,3.6025,3.599,3.6065,3.6074,3.6075,3.6106,3.6107,3.6107,3.6114,3.6113,3.6113,3.6112,3.615,3.6152,3.6154,3.6177,0,0,3.616,3.6161,0,0,0,0,0,0,0,0,3.6023,3.6028,3.6072,3.6073,3.6075,3.6104,3.6094,3.6131,3.6114,3.6099,3.6113,3.6112,3.6136,3.6139,3.6148,3.6179,3.618,3.616,3.6162,3.6162,3.6163,0,0,0,0,0,0,0,3.602,3.6026,3.6081,3.6073,3.6074,3.6075,3.608,3.6101,3.612,3.61,3.6101,3.6106,3.6136,3.6146,3.6148,3.6181,3.616,3.6162,3.6163,3.6164,3.6235,3.6236,0,0,0,0,0,0,3.6017,3.6024,3.608,3.6082,3.6047,3.6077,3.6082,3.6095,3.6119,3.6123,3.6106,3.6106,3.6142,3.6146,3.615,3.618,3.6162,3.6164,3.6165,3.6234,3.6235,3.6236,0,0,0,0,0,0,3.6015,3.6021,3.6078,3.6053,3.6061,3.6079,3.6094,3.6096,3.6106,3.6124,3.6127,3.6113,3.6142,3.6147,3.6171,3.6181,3.6165,3.6167,3.6233,3.6234,3.6235,3.6239,0,0,0,0,0,0,3.6013,3.6021,3.603,3.6053,3.6062,3.6099,3.6094,3.6098,3.611,3.611,3.6131,3.6134,3.6142,3.6168,3.6173,3.6184,3.6169,3.6233,3.6234,3.6235,3.6238,3.624,3.6242,0,0,0,0,0,3.601,3.6028,3.6031,3.6037,3.6074,3.61,3.6104,3.6115,3.6111,3.612,3.6132,3.6133,3.6179,3.617,3.6176,3.6187,3.6232,3.6234,3.6235,3.6237,3.624,3.6242,0,0,0,0,0,0,3.6004,3.6031,3.6034,3.6061,3.6078,3.6101,3.6113,3.6117,3.6134,3.6133,3.6144,3.6149,3.6173,3.6182,3.6172,3.6212,3.6205,3.6208,3.6205,3.6207,3.6209,3.6206,3.617,0,0,0,0,0,3.6006,3.6025,3.6048,3.6069,3.6078,3.6094,3.6105,3.6112,3.613,3.6137,3.615,3.6166,3.6185,3.6196,3.6214,3.6239,3.6245,3.625,3.6252,3.6253,3.6256,3.6271,3.6275,3.6241,3.6241,3.6241,0,0,3.6009,3.6027,3.6038,3.6068,3.6083,3.6102,3.61,3.612,3.6134,3.6139,3.6164,3.6174,3.6193,3.6218,3.623,3.6227,3.6266,3.6255,3.6256,3.6258,3.6273,3.6276,3.6279,3.6242,3.6242,3.6241,0,0,3.6026,3.6041,3.6062,3.6077,3.6099,3.611,3.6115,3.6138,3.6146,3.6171,3.6175,3.6192,3.6223,3.6237,3.6248,3.6272,3.6274,3.6278,3.6287,3.6302,3.6305,3.6307,3.6317,3.6321,3.628,3.628,3.628,0,3.6028,3.6059,3.6071,3.6092,3.6106,3.6113,3.6134,3.6147,3.6173,3.6182,3.6179,3.6219,3.6232,3.6262,3.6268,3.6276,3.6282,3.6275,3.6304,3.6306,3.6309,3.6318,3.6322,3.628,3.628,3.628,3.628,0,3.606,3.6081,3.6095,3.6123,3.6137,3.6158,3.6173,3.6187,3.6193,3.6204,3.623,3.6246,3.6268,3.6275,3.628,3.6306,3.6303,3.6302,3.6295,3.6312,3.6321,3.6325,3.6281,3.628,3.628,3.628,0,0,3.6073,3.611,3.6114,3.6128,3.6154,3.617,3.6191,3.6215,3.6227,3.6245,3.6263,3.629,3.6289,3.6302,3.6309,3.6322,3.6342,3.6319,3.6319,3.6323,3.6373,3.6374,3.6378,3.6344,3.6344,3.6345,3.6371,0,3.6094,3.6134,3.6147,3.6179,3.62,3.6208,3.6227,3.6244,3.6256,3.6274,3.6286,3.6306,3.6303,3.6311,3.6324,3.6337,3.6352,3.6335,3.636,3.6361,3.6356,3.6383,3.6384,3.6409,3.6375,3.6376,3.6376,0,3.6123,3.6145,3.618,3.6206,3.6215,3.6232,3.6255,3.6273,3.6293,3.63,3.6316,3.6322,3.6344,3.6336,3.6367,3.6355,3.6367,3.6374,3.6376,3.6379,3.637,3.6388,3.6417,3.6421,3.6382,3.6381,3.6381,0,3.6131,3.6168,3.6195,3.6206,3.6236,3.6248,3.6261,3.6281,3.6295,3.6315,3.6324,3.6346,3.6358,3.6374,3.6386,3.6379,3.6416,3.6409,3.6423,3.6423,3.6431,3.643,3.6463,3.6436,3.6436,3.6436,3.6436,0,3.6153,3.6175,3.6199,3.6215,3.624,3.6255,3.6278,3.6291,3.631,3.6329,3.6336,3.6353,3.6368,3.6387,3.6396,3.6421,3.6426,3.6432,3.6434,3.6432,3.6431,3.644,3.6439,3.6437,3.6437,3.6437,3.6437,0,3.6165,3.6183,3.6213,3.624,3.6247,3.6264,3.6287,3.6303,3.6316,3.634,3.6346,3.6365,3.6388,3.6402,3.643,3.6436,3.6464,3.6465,3.6458,3.6459,3.6473,3.6472,3.6512,3.6519,3.6487,3.6488,3.6488,0,3.6179,3.6196,3.6226,3.6241,3.6255,3.6277,3.6292,3.6307,3.6322,3.6348,3.6361,3.6385,3.6405,3.6441,3.6457,3.6479,3.6481,3.6494,3.6485,3.6482,3.6483,3.6482,3.6484,3.6496,3.6496,3.6496,3.6497,0,3.6201,3.621,3.6232,3.6258,3.6277,3.6297,3.6318,3.6328,3.6347,3.6363,3.6389,3.6404,3.6435,3.6459,3.6483,3.6495,3.6499,3.65,3.6504,3.6502,3.6498,3.6502,3.6463,3.6499,3.6498,3.6498,3.6498,3.6498,3.6216,3.6232,3.6257,3.6282,3.63,3.6319,3.6336,3.6352,3.6374,3.6401,3.6408,3.6435,3.6456,3.6489,3.6502,3.6522,3.652,3.6526,3.6528,3.653,3.6531,3.6494,3.6526,3.6526,3.6526,3.6526,3.6526,0,3.6239,3.6256,3.628,3.631,3.6329,3.6334,3.6357,3.6373,3.6397,3.6417,3.6438,3.6467,3.6491,3.6509,3.6533,3.6546,3.6549,3.6552,3.6551,3.6554,3.653,3.6525,3.655,3.655,3.655,3.655,3.655,3.655,3.6254,3.6284,3.6295,3.6333,3.6349,3.6377,3.639,3.6408,3.6425,3.6458,3.6479,3.6491,3.6511,3.6537,3.6559,3.6564,3.6573,3.6576,3.6581,3.6558,3.6556,3.6553,3.6548,3.6578,3.6578,3.6604,3.6604,3.6604]}]]